Precipitable_Water
1.84 1.90 1.92 1.81 1.81 1.82 1.63 1.63 1.69 1.77 1.77 1.72 1.75 1.79 1.68 1.64 1.57 1.33 1.18 1.21 1.32 1.40 1.38 1.37 1.34 1.36 1.32 1.30 1.35 1.31 1.34 1.37 1.33 1.31 1.30 1.35 1.42 1.44 1.44 1.47 1.46 1.51 1.46
1.82 1.83 1.70 1.97 1.82 1.69 1.65 1.46 1.62 1.68 1.67 1.71 1.62 1.79 1.68 1.61 1.53 1.45 1.39 1.35 1.33 1.34 1.36 1.29 1.32 1.32 1.31 1.29 1.33 1.32 1.24 1.22 1.23 1.26 1.27 1.34 1.37 1.37 1.37 1.41 1.40 1.35 1.28
1.59 1.86 1.73 1.65 1.84 1.71 1.65 1.44 1.49 1.65 1.54 1.67 1.70 1.63 1.65 1.62 1.64 1.69 1.64 1.69 1.63 1.63 1.59 1.46 1.43 1.36 1.34 1.33 1.30 1.33 1.35 1.34 1.31 1.30 1.32 1.33 1.33 1.39 1.43 1.44 1.39 1.32 1.26
1.88 1.73 1.75 1.73 1.69 1.63 1.50 1.37 1.60 1.50 1.46 1.51 1.57 1.65 1.64 1.59 1.57 1.56 1.55 1.47 1.46 1.47 1.52 1.42 1.40 1.34 1.34 1.36 1.37 1.36 1.33 1.32 1.28 1.31 1.37 1.40 1.39 1.40 1.38 1.35 1.34 1.28 1.19
1.87 1.75 1.89 1.71 1.71 1.59 1.47 1.44 1.50 1.53 1.41 1.38 1.34 1.45 1.39 1.49 1.44 1.42 1.40 1.44 1.35 1.37 1.37 1.34 1.39 1.37 1.26 1.18 1.16 1.18 1.24 1.27 1.32 1.35 1.37 1.36 1.37 1.35 1.34 1.34 1.31 1.26 1.14
1.83 1.83 1.70 1.67 1.81 1.60 1.50 1.40 1.33 1.39 1.39 1.42 1.35 1.33 1.27 1.33 1.37 1.34 1.41 1.41 1.39 1.46 1.41 1.30 1.34 1.39 1.31 1.20 1.09 1.13 1.22 1.26 1.27 1.28 1.28 1.28 1.27 1.27 1.30 1.29 1.26 1.20 1.19
1.81 1.78 1.64 1.66 1.77 1.61 1.38 1.51 1.41 1.36 1.38 1.45 1.22 1.31 1.29 1.38 1.35 1.33 1.37 1.39 1.41 1.44 1.42 1.38 1.32 1.31 1.28 1.25 1.20 1.08 1.08 1.13 1.19 1.23 1.23 1.22 1.23 1.26 1.29 1.27 1.24 1.19 1.23
1.78 1.81 1.56 1.62 1.77 1.66 1.43 1.40 1.35 1.32 1.33 1.35 1.13 1.21 1.03 1.10 1.27 1.32 1.31 1.27 1.30 1.36 1.35 1.37 1.36 1.22 1.24 1.26 1.30 1.14 1.06 1.11 1.16 1.19 1.22 1.23 1.22 1.25 1.25 1.25 1.22 1.22 1.24
1.64 1.70 1.69 1.62 1.60 1.54 1.33 1.39 1.41 1.36 1.16 1.25 1.25 1.27 1.05 0.96 1.14 1.24 1.24 1.26 1.25 1.23 1.33 1.36 1.37 1.35 1.36 1.31 1.35 1.33 1.19 1.13 1.15 1.22 1.23 1.20 1.20 1.23 1.21 1.20 1.20 1.23 1.26
1.52 1.70 1.75 1.79 1.73 1.60 1.47 1.38 1.46 1.42 1.35 1.17 1.23 1.35 1.35 1.25 1.02 0.86 1.16 1.30 1.31 1.24 1.33 1.31 1.34 1.41 1.39 1.37 1.42 1.44 1.41 1.27 1.24 1.26 1.26 1.25 1.23 1.23 1.23 1.20 1.20 1.23 1.26
1.56 1.53 1.68 1.77 1.66 1.70 1.65 1.52 1.45 1.55 1.52 1.34 1.27 1.27 1.26 1.21 1.30 1.09 1.00 1.13 1.28 1.26 1.32 1.32 1.32 1.37 1.41 1.46 1.45 1.41 1.43 1.40 1.33 1.32 1.31 1.31 1.29 1.29 1.27 1.26 1.26 1.26 1.27
1.61 1.53 1.58 1.60 1.58 1.65 1.68 1.57 1.53 1.50 1.47 1.46 1.47 1.41 1.27 1.19 1.12 1.16 1.11 1.11 1.13 1.19 1.33 1.37 1.36 1.37 1.37 1.39 1.41 1.42 1.45 1.45 1.42 1.40 1.36 1.35 1.36 1.36 1.34 1.36 1.35 1.34 1.32
1.54 1.56 1.62 1.63 1.58 1.55 1.67 1.64 1.57 1.44 1.43 1.42 1.48 1.37 1.42 1.37 1.27 1.32 1.22 1.17 1.17 1.25 1.31 1.46 1.40 1.35 1.38 1.38 1.41 1.44 1.45 1.48 1.44 1.40 1.37 1.38 1.41 1.42 1.45 1.47 1.44 1.43 1.43
1.35 1.49 1.53 1.61 1.52 1.50 1.58 1.61 1.56 1.44 1.37 1.42 1.43 1.45 1.39 1.45 1.35 1.27 1.23 1.15 1.09 1.19 1.30 1.26 1.40 1.35 1.38 1.41 1.43 1.46 1.48 1.49 1.42 1.45 1.49 1.52 1.57 1.64 1.74 1.73 1.66 1.59 1.54
1.43 1.48 1.51 1.49 1.48 1.43 1.40 1.44 1.49 1.48 1.46 1.27 1.27 1.29 1.34 1.33 1.38 1.39 1.30 1.24 1.18 1.03 1.08 1.28 1.24 1.45 1.42 1.46 1.48 1.50 1.47 1.47 1.56 1.61 1.59 1.71 1.75 1.80 1.85 1.90 1.79 1.71 1.65
1.48 1.49 1.53 1.47 1.44 1.40 1.29 1.37 1.38 1.49 1.58 1.48 1.30 1.14 1.15 1.16 1.25 1.41 1.42 1.27 1.28 1.22 1.08 1.26 1.24 1.36 1.49 1.47 1.49 1.52 1.47 1.56 1.63 1.60 1.66 1.74 1.75 1.79 1.83 1.89 1.80 1.67 1.65
1.42 1.41 1.54 1.52 1.46 1.38 1.27 1.26 1.30 1.32 1.41 1.43 1.39 1.26 1.23 1.27 1.20 1.36 1.46 1.45 1.30 1.23 1.03 1.11 1.26 1.34 1.32 1.29 1.29 1.44 1.62 1.61 1.63 1.72 1.73 1.73 1.72 1.79 1.85 1.87 1.78 1.67 1.65
1.31 1.49 1.45 1.48 1.46 1.39 1.31 1.19 1.19 1.23 1.32 1.40 1.42 1.39 1.42 1.45 1.34 1.34 1.42 1.42 1.41 1.43 1.26 1.08 1.19 1.20 1.33 1.40 1.44 1.51 1.57 1.68 1.74 1.77 1.75 1.68 1.71 1.78 1.80 1.89 1.84 1.75 1.72
1.17 1.34 1.52 1.43 1.39 1.34 1.25 1.18 1.18 1.16 1.19 1.28 1.38 1.42 1.33 1.38 1.37 1.37 1.35 1.35 1.38 1.40 1.38 1.23 1.15 1.31 1.28 1.32 1.45 1.53 1.54 1.59 1.67 1.66 1.63 1.64 1.58 1.74 2.02 2.05 1.86 1.63 1.56
1.09 1.15 1.29 1.33 1.30 1.26 1.24 1.18 1.17 1.13 1.11 1.17 1.26 1.32 1.34 1.36 1.34 1.33 1.32 1.31 1.30 1.25 1.24 1.18 1.12 1.12 1.26 1.41 1.44 1.31 1.17 1.27 1.32 1.38 1.42 1.66 1.93 2.06 2.05 2.04 1.82 1.67 1.70
1.04 1.14 1.14 1.28 1.27 1.25 1.22 1.17 1.17 1.17 1.13 1.11 1.11 1.18 1.27 1.31 1.33 1.37 1.35 1.33 1.36 1.29 1.24 1.18 1.16 1.24 1.23 1.22 1.12 1.15 1.16 1.22 1.30 1.41 1.62 1.88 1.95 2.00 2.02 1.92 1.82 1.71 1.63
1.14 1.07 1.12 1.13 1.20 1.23 1.21 1.20 1.18 1.18 1.23 1.18 1.10 1.11 1.14 1.20 1.21 1.25 1.33 1.40 1.40 1.27 1.19 1.17 1.12 1.07 1.01 1.03 1.10 1.14 1.17 1.13 1.09 1.58 1.72 1.72 1.97 1.94 1.95 1.80 1.73 1.60 1.41
1.19 1.20 1.16 1.15 1.11 1.16 1.20 1.17 1.17 1.18 1.20 1.21 1.17 1.17 1.15 1.18 1.20 1.21 1.23 1.24 1.24 1.27 1.27 1.20 1.09 1.03 1.08 1.17 1.30 1.21 1.20 1.23 1.29 1.65 1.77 1.53 1.88 1.82 1.89 1.54 1.44 1.43 1.31
1.24 1.19 1.24 1.24 1.16 1.14 1.20 1.21 1.19 1.20 1.22 1.23 1.22 1.23 1.19 1.13 1.13 1.13 1.09 1.13 1.17 1.20 1.20 1.24 1.26 1.26 1.38 1.43 1.43 1.36 1.35 1.45 1.68 1.79 1.81 1.49 1.81 1.76 1.62 1.39 1.42 1.37 1.28
1.24 1.21 1.28 1.27 1.24 1.22 1.25 1.26 1.25 1.21 1.19 1.20 1.23 1.26 1.24 1.17 1.14 1.18 1.11 1.01 1.03 1.11 1.30 1.36 1.44 1.53 1.51 1.45 1.44 1.44 1.44 1.57 1.41 1.51 1.81 1.75 1.75 1.61 1.34 1.29 1.36 1.30 1.25
1.40 1.38 1.26 1.32 1.32 1.27 1.32 1.29 1.27 1.21 1.15 1.15 1.23 1.25 1.27 1.24 1.20 1.19 1.14 1.07 0.94 0.89 0.98 1.12 1.26 1.35 1.43 1.47 1.56 1.75 1.78 1.55 1.53 1.48 1.77 1.67 1.65 1.49 1.12 1.34 1.28 1.25 1.20
Wind_Speed
9 10 10 9 9 9 10 8 9 9 9 9 12 13 13 12 12 12 12 11 11 11 11 12 12 12 12 12 12 12 11 11 11 12 12 12 13 13 13 13 14 14 15
8 8 8 7 9 9 9 9 9 8 9 9 9 10 10 10 11 11 12 12 11 11 11 11 11 11 11 11 11 10 10 10 10 11 11 12 12 13 13 14 15 15 16
7 6 7 7 7 7 7 8 6 8 8 10 10 10 9 9 9 10 9 10 10 10 10 9 9 9 9 9 10 10 10 10 10 11 11 12 13 14 15 15 16 16 16
7 7 6 7 6 6 7 8 9 8 8 8 8 9 9 9 9 9 9 9 8 8 8 9 9 9 9 9 9 9 9 10 11 12 12 13 14 15 15 16 17 17 17
7 6 7 7 7 7 8 7 7 8 9 8 9 8 7 8 8 9 9 8 9 9 8 7 8 9 9 9 10 10 11 12 12 13 13 14 14 15 15 16 16 17 17
7 7 8 8 8 9 7 7 7 7 7 8 8 8 7 7 7 7 8 9 10 10 11 11 9 9 10 11 12 12 12 13 13 13 14 14 15 15 15 15 15 16 17
7 7 7 8 8 7 8 7 8 7 8 9 7 6 6 5 5 6 6 7 8 8 9 10 10 10 10 11 12 13 13 13 13 13 14 14 14 14 14 14 15 16 17
8 8 8 8 7 8 6 7 7 7 7 6 6 6 6 6 5 5 6 6 7 7 8 9 10 10 11 12 12 13 13 13 13 13 13 13 13 14 14 15 15 16 17
9 9 8 8 8 7 7 7 6 6 5 5 4 4 6 6 7 7 8 7 7 7 7 8 10 11 12 11 11 11 12 12 12 12 12 12 13 13 14 15 16 17 17
9 9 8 8 8 7 6 6 7 6 5 5 4 5 6 7 7 8 7 7 7 7 8 9 9 9 10 10 10 10 10 11 11 11 11 12 13 14 15 16 17 17 18
9 9 8 7 6 6 5 5 6 5 5 4 5 5 6 7 7 7 7 7 7 8 9 9 8 8 8 8 8 8 8 9 10 11 11 13 14 15 16 17 18 18 19
9 8 8 7 6 5 5 5 4 4 5 5 4 5 6 7 6 6 5 7 7 8 8 8 8 7 7 6 5 6 6 7 9 11 12 14 16 17 18 19 19 19 20
11 9 9 7 5 5 4 4 4 4 5 5 5 6 6 6 6 6 7 8 7 6 6 6 6 5 5 4 4 5 6 8 11 13 14 16 17 18 19 20 20 20 21
13 11 9 8 6 5 4 4 4 4 5 5 6 6 5 5 6 5 6 6 5 6 5 5 4 3 2 2 4 5 8 10 13 15 16 17 18 19 19 20 21 21 22
13 12 11 10 7 6 5 5 4 4 4 5 6 6 6 6 6 5 5 5 5 4 4 4 3 3 2 3 5 7 9 12 13 14 15 17 19 20 22 22 22 22 24
15 13 14 12 10 7 7 6 5 5 5 5 5 6 7 7 7 6 5 5 4 4 3 2 0 2 4 4 6 8 11 12 13 15 17 19 21 22 23 24 23 24 26
18 15 15 14 12 10 8 8 7 7 7 6 6 7 8 8 8 8 5 5 5 4 4 3 3 4 6 7 9 10 11 13 15 16 18 21 23 24 25 26 26 26 27
21 19 18 17 15 12 11 10 9 9 8 9 9 8 8 9 10 10 9 7 6 5 5 5 6 7 7 8 9 10 13 15 15 17 20 23 25 27 28 27 25 26 27
25 23 20 20 18 16 14 13 12 11 11 10 11 11 11 11 11 11 11 11 10 9 8 8 8 8 10 11 11 12 11 14 17 19 21 25 28 27 26 26 26 26 27
28 26 24 23 21 20 18 16 15 14 13 13 13 14 14 14 13 13 14 14 13 13 13 13 12 12 12 11 11 12 15 16 19 22 25 26 26 27 26 24 24 26 29
30 28 27 26 24 23 21 20 18 17 16 15 15 16 15 16 16 16 16 17 16 16 15 14 14 13 12 12 13 15 17 19 21 23 23 25 26 25 24 24 25 27 29
31 31 30 28 27 25 24 23 21 20 18 18 17 17 17 17 17 18 18 18 18 18 17 16 16 15 15 16 16 17 19 20 21 23 24 25 25 24 24 24 25 29 29
32 31 31 30 29 28 26 25 24 22 21 20 19 18 18 19 18 18 18 19 19 20 20 19 17 17 16 16 17 20 21 22 23 25 24 25 25 24 23 24 25 27 31
32 33 32 31 30 29 28 27 26 25 24 22 21 21 20 20 19 19 19 19 19 19 19 19 19 19 19 20 21 22 24 24 25 25 25 24 24 22 23 23 23 29 31
30 32 32 32 31 30 29 29 28 27 26 25 24 23 23 22 21 21 21 21 21 20 19 20 19 19 21 22 23 24 24 24 24 25 25 24 23 22 21 20 24 29 31
30 29 31 31 32 32 31 30 30 29 28 27 26 25 25 24 23 23 23 23 22 22 21 20 20 21 22 22 23 23 25 24 24 24 23 23 23 21 20 20 26 29 31
Wind_Direction
111 113 103 106 106 102 105 110 104 97 88 85 81 94 102 92 85 82 87 89 88 85 84 84 83 82 80 80 78 77 72 67 62 56 52 47 43 38 34 30 26 22 21
123 112 117 96 113 106 106 104 104 104 88 88 98 97 99 96 83 86 87 86 86 86 84 83 82 80 79 78 74 71 66 61 56 51 45 41 37 35 33 31 29 29 29
127 116 115 121 123 114 114 101 99 109 97 94 96 95 101 98 90 87 88 86 86 84 80 80 80 79 77 74 69 66 61 56 50 47 44 43 43 43 41 40 39 39 38
113 120 122 125 119 126 119 115 101 113 102 101 98 100 98 96 93 86 90 82 83 80 79 78 79 78 76 73 67 61 59 57 55 54 53 53 51 48 47 45 43 42 39
124 102 125 124 123 122 119 119 106 104 113 101 100 107 102 99 90 90 85 78 83 80 76 84 82 79 75 73 69 69 68 65 64 61 58 56 53 51 49 46 42 38 35
134 119 122 128 118 123 119 124 119 111 116 121 104 101 100 104 95 94 86 85 84 84 78 79 86 82 80 77 75 74 72 70 66 62 59 56 54 50 46 40 36 32 28
137 131 125 130 124 127 117 117 121 111 110 120 112 97 97 102 102 93 95 90 86 86 82 80 84 85 83 82 81 78 73 69 66 63 59 55 49 44 38 32 27 22 18
141 132 129 128 123 132 126 131 125 118 116 119 117 95 90 96 95 101 107 97 91 92 88 84 83 87 88 92 85 77 71 68 65 60 55 49 42 35 28 22 17 12 10
144 137 131 131 125 119 126 138 136 122 127 125 119 96 110 104 102 103 105 100 89 97 96 93 92 91 93 93 85 75 69 66 60 53 46 37 29 23 17 12 7 4 2
150 147 139 133 129 121 124 130 141 131 123 123 113 114 103 116 108 101 100 100 93 98 102 100 101 100 92 89 86 75 65 59 51 42 32 25 17 10 5 0 357 355 354
157 155 150 142 139 130 131 126 144 146 138 135 127 120 117 120 115 108 97 102 101 104 105 100 103 104 99 92 80 67 57 44 34 24 15 9 3 358 353 351 350 349 348
170 166 164 154 147 144 138 138 145 160 158 143 132 129 132 130 116 112 106 118 116 106 110 106 102 103 100 88 65 49 35 20 10 5 360 354 350 348 346 344 343 342 341
187 178 177 173 165 160 155 149 149 153 167 164 147 142 135 137 134 116 113 110 112 118 116 115 109 110 88 65 40 26 8 358 353 349 345 342 342 341 341 340 339 338 337
192 190 187 184 181 178 174 164 156 161 169 177 173 166 161 150 144 140 133 123 114 111 105 129 105 117 70 23 3 353 349 343 342 340 341 342 342 342 341 339 338 336 335
200 202 201 199 197 195 192 186 180 173 172 179 188 191 185 179 172 159 160 150 137 130 115 116 91 41 310 335 340 339 339 340 340 344 345 344 342 340 339 336 336 336 336
209 210 208 208 208 209 203 200 197 194 192 192 196 194 193 189 183 176 173 180 176 173 170 173 336 13 24 347 344 336 333 336 338 338 338 339 338 337 336 335 333 333 334
215 214 211 211 214 214 212 213 213 211 211 210 209 204 204 200 201 200 197 193 198 207 219 241 272 298 315 317 322 326 331 331 332 331 333 334 335 334 333 332 331 330 330
219 220 218 219 220 221 221 223 223 225 225 225 223 221 219 216 216 217 219 223 226 229 236 257 277 293 307 315 320 324 326 327 329 332 331 331 332 332 331 331 333 334 334
223 223 224 223 223 225 228 230 233 235 234 235 232 230 231 227 227 228 231 236 239 244 252 263 278 288 296 306 312 318 327 330 330 331 332 332 331 332 334 333 333 337 339
225 225 227 227 228 230 232 235 237 238 241 240 240 237 238 237 238 239 239 242 246 252 258 265 274 282 289 298 305 312 319 323 325 327 329 332 333 333 333 336 337 337 337
226 227 228 230 231 232 234 236 238 240 242 244 244 242 243 244 244 245 247 247 249 254 258 264 270 275 283 291 299 306 312 318 322 328 330 334 334 335 336 335 336 337 339
227 227 229 230 231 233 235 237 238 239 242 244 245 246 245 247 249 249 250 251 252 253 256 260 266 271 278 287 294 301 308 314 319 326 327 329 333 333 334 335 336 337 341
226 228 229 231 233 234 236 236 237 239 242 244 245 247 248 249 250 252 252 254 254 254 255 258 262 268 276 284 292 299 305 309 312 317 321 324 330 330 332 334 338 342 343
227 229 230 232 233 235 235 236 237 239 241 244 245 247 249 250 250 252 254 255 256 255 256 257 260 268 275 284 290 296 302 306 310 315 317 319 325 326 330 334 339 342 343
228 229 231 232 233 235 235 236 237 238 241 244 247 247 249 251 251 252 254 256 255 255 256 257 261 268 276 284 290 296 299 304 307 312 315 316 321 323 326 331 336 340 341
230 231 232 233 234 235 236 236 236 238 241 244 247 248 249 250 253 253 254 255 253 255 257 259 264 272 278 285 290 294 298 301 305 310 313 315 317 320 322 325 332 336 340